Simultaneous Nadir Overpasses (SNOs) Predictions

Prediction of SNOs between AQUA and NOAA-19 Satellite Orbit:

Table of predicted SNOs for the next 14.0 days since TLE Epoch: 6/10/2015
Index Date (AQUA) Time (AQUA) Lat,Lon (AQUA) SZA (AQUA ) Date (NOAA-19) Time (NOAA-19) Lat,Lon (NOAA-19) SZA (NOAA-19 ) Distance(km) Time Diff (sec)
1 06/12/2015 18:57:58 80.08,-135.45 58.40 06/12/2015 18:57:05 80.07,-135.44 58.41 0.61 53
2 06/12/2015 19:47:21 -79.97, 33.08 121.78 06/12/2015 19:47:57 -79.98, 32.95 121.78 2.57 36
3 06/15/2015 00:31:40 -80.04, -38.56 121.78 06/15/2015 00:31:20 -80.03, -38.42 121.79 3.07 20
4 06/17/2015 05:16:08 -80.42,-113.07 121.21 06/17/2015 05:14:54 -80.34,-113.33 121.21 10.13 74
5 06/17/2015 06:05:22 79.99, 58.44 58.07 06/17/2015 06:05:46 79.98, 58.59 58.04 3.19 24
6 06/19/2015 10:49:40 80.06, -13.20 58.14 06/19/2015 10:49:10 80.06, -13.22 58.16 0.72 30
7 06/19/2015 11:39:04 -79.98, 155.05 121.98 06/19/2015 11:40:03 -79.99, 154.92 121.99 2.54 59
8 06/21/2015 16:23:21 -80.03, 83.57 121.91 06/21/2015 16:23:25 -80.02, 83.73 121.93 3.26 4
9 06/23/2015 21:07:39 -80.13, 11.65 121.71 06/23/2015 21:06:50 -80.13, 11.56 121.68 1.83 49




NCC Satellite Simultaneous Nadir Overpasses (SNOs) Prediction Service
